Naples, FL

10:46 AM EDT on April 23, 2017 (GMT -0400)
Naples Municipal

Weather History for KAPF - October, 2013

Change the Weather History Date:

Sunday, October 13, 2013

  Actual Average Record
Temperature  
Mean Temperature 79 °F 79 °F  
Max Temperature 87 °F 88 °F 95 °F (1986)
Min Temperature 71 °F 71 °F 60 °F (1988)
Degree Days  
Heating Degree Days 0 0  
Month to date heating degree days 0 0  
Since 1 July heating degree days 0 0  
Cooling Degree Days 14 14  
Month to date cooling degree days 202 196  
Year to date cooling degree days 3402 3373  
Growing Degree Days 28 (Base 50)    
Moisture  
Dew Point 67 °F    
Average Humidity 74    
Maximum Humidity 93    
Minimum Humidity 55    
Precipitation  
Precipitation 0.00 in 0.16 in 0.96 in (2002)
Month to date precipitation 1.24 2.43  
Year to date precipitation 48.22 46.64  
Snow  
Snow 0.00 in - - ()
Month to date snowfall 0.0  
Since 1 July snowfall 0.0  
Since 1 September snowfall 0.0  
Snow Depth 0.00 in    
Sea Level Pressure  
Sea Level Pressure 30.01 in    
Wind  
Wind Speed 4 mph (ENE)    
Max Wind Speed 13 mph    
Max Gust Speed 16 mph    
Visibility 10 miles    
Events      
T = Trace of Precipitation, MM = Missing Value Source: NWS Daily Summary

Daily Weather History Graph

Daily Weather History Graph

Search for Another Location

Airport or City:

Trip Planner

Search our weather history database for the weather conditions in past years. The results will help you decide how hot, cold, wet, or windy it might be!

Date:

Astronomy

Oct. 13, 2013 Rise Set
Actual Time 7:25 AM EDT 7:00 PM EDT
Civil Twilight 7:02 AM EDT 7:24 PM EDT
Nautical Twilight 6:35 AM EDT 7:50 PM EDT
Astronomical Twilight 6:08 AM EDT 8:17 PM EDT
Moon 3:23 PM EDT (10/13) 2:04 AM EDT (10/13)
Length of Visible Light 12h 22m
Length of Day
11h 35m
Waxing Gibbous, 69% of the Moon is Illuminated
Oct 13
Waxing Gibbous
Oct 18
Full
Oct 26
Last Quarter
Nov 3
New
Nov 10
First Quarter

Hourly Weather History & Observations

Time (EDT) Temp. Heat Index Dew Point Humidity Pressure Visibility Wind Dir Wind Speed Gust Speed Precip Events Conditions
12:53 AM 75.0 °F - 69.1 °F 82% 30.02 in 10.0 mi ENE 5.8 mph - N/A   Mostly Cloudy
1:53 AM 75.0 °F - 69.1 °F 82% 30.00 in 10.0 mi Calm Calm - N/A   Clear
2:53 AM 73.9 °F - 68.0 °F 82% 29.98 in 10.0 mi Calm Calm - N/A   Clear
3:53 AM 73.0 °F - 66.9 °F 81% 29.98 in 10.0 mi Calm Calm - N/A   Clear
4:53 AM 72.0 °F - 68.0 °F 87% 29.99 in 10.0 mi Calm Calm - N/A   Mostly Cloudy
5:53 AM 73.0 °F - 69.1 °F 87% 29.99 in 10.0 mi Calm Calm - N/A   Overcast
6:53 AM 72.0 °F - 69.1 °F 91% 30.00 in 10.0 mi Calm Calm - N/A   Clear
7:53 AM 72.0 °F - 69.1 °F 91% 30.01 in 9.0 mi NE 4.6 mph - N/A   Clear
8:53 AM 77.0 °F - 70.0 °F 79% 30.03 in 10.0 mi Calm Calm - N/A   Clear
9:53 AM 80.1 °F 83.2 °F 70.0 °F 71% 30.05 in 10.0 mi ENE 5.8 mph - N/A   Clear
10:53 AM 82.9 °F 86.5 °F 69.1 °F 63% 30.06 in 10.0 mi ENE 6.9 mph - N/A   Scattered Clouds
11:53 AM 81.0 °F 83.8 °F 68.0 °F 65% 30.05 in 10.0 mi NE 5.8 mph - N/A   Scattered Clouds
12:53 PM 84.0 °F 87.8 °F 69.1 °F 61% 30.04 in 10.0 mi ESE 5.8 mph - N/A   Mostly Cloudy
1:53 PM 82.9 °F 85.8 °F 68.0 °F 60% 30.02 in 10.0 mi NE 5.8 mph - N/A   Overcast
2:53 PM 84.0 °F 87.0 °F 68.0 °F 58% 29.99 in 10.0 mi ENE 8.1 mph - N/A   Overcast
3:53 PM 82.9 °F 85.0 °F 66.0 °F 56% 29.98 in 10.0 mi East 6.9 mph - N/A   Mostly Cloudy
4:53 PM 82.9 °F 84.6 °F 64.9 °F 54% 29.96 in 10.0 mi NE 9.2 mph - N/A   Mostly Cloudy
5:53 PM 82.9 °F 84.6 °F 64.9 °F 54% 29.97 in 10.0 mi NE 8.1 mph - N/A   Scattered Clouds
6:53 PM 82.0 °F 83.8 °F 64.9 °F 56% 29.98 in 10.0 mi ENE 3.5 mph - N/A   Mostly Cloudy
7:53 PM 78.1 °F - 66.0 °F 66% 29.99 in 10.0 mi NE 4.6 mph - N/A   Scattered Clouds
8:53 PM 77.0 °F - 64.0 °F 64% 30.01 in 10.0 mi ENE 6.9 mph - N/A   Clear
9:53 PM 75.9 °F - 63.0 °F 64% 30.02 in 10.0 mi NE 4.6 mph - N/A   Clear
10:53 PM 75.0 °F - 63.0 °F 66% 30.03 in 10.0 mi ENE 9.2 mph - N/A   Clear
11:53 PM 72.0 °F - 64.0 °F 76% 30.03 in 10.0 mi ENE 5.8 mph - N/A   Clear